User: anonymous   Login
Location: *
(50.2903°S, 172.5375°W)
Time: 22:58:42
(UTC+00:00)
Language:

STARLINK 1008 - Orbit

View from above orbital plane
View from above orbital plane
View from above satellite
View from above satellite

Ground track
Ground track

The orbit data is extracted from the following two-line orbital elements,

1 44714U 19074B   20027.58334491 -.00025486  00000-0 -17733-3 0  9990
2 44714  53.0063 147.7961 0004122  26.6470 333.8018 15.73228136 12139
Epoch (UTC): 27 January 2020 14:00:01
Eccentricity: 0.0004122
inclination: 53.0063°
perigee height: 347 km
apogee height: 352 km
right ascension of ascending node: 147.7961°
argument of perigee: 26.6470°
revolutions per day: 15.73228136
mean anomaly at epoch: 333.8018°
orbit number at epoch: 1213

The dashed part of the orbit path shows where the satellite is in the earth's shadow,  

DLR